�������l�o���
Date,Time,MP-1(��Sv/h),MP-2(��Sv/h),MP-3(��Sv/h),MP-4(��Sv/h),MP-5(��Sv/h),MP-6(��Sv/h),MP-7(��Sv/h),MP-8(��Sv/h),����,����(m/s),���J
2021/05/22,00:00,0.601,0.872,0.564,1.068,0.750,0.367,0.626,0.590,�k��,5.2,�L
2021/05/22,00:10,0.600,0.874,0.566,1.069,0.749,0.368,0.626,0.590,�k�k��,4.7,�L
2021/05/22,00:20,0.599,0.873,0.565,1.069,0.750,0.364,0.626,0.590,�k�k��,2.8,�L
2021/05/22,00:30,0.599,0.872,0.563,1.069,0.749,0.366,0.626,0.591,�k��,5.7,�L
2021/05/22,00:40,0.598,0.872,0.563,1.069,0.750,0.364,0.626,0.590,�k�k��,2.0,�L
2021/05/22,00:50,0.597,0.872,0.563,1.070,0.751,0.366,0.626,0.591,�k��,1.2,�L
2021/05/22,01:00,0.601,0.871,0.563,1.069,0.752,0.365,0.627,0.592,�k,0.6,�L
2021/05/22,01:10,0.598,0.873,0.562,1.068,0.751,0.365,0.626,0.592,�k��,1.5,�L
2021/05/22,01:20,0.598,0.874,0.561,1.069,0.751,0.364,0.627,0.590,��,0.8,�L
2021/05/22,01:30,0.597,0.876,0.562,1.069,0.753,0.367,0.626,0.591,�k�k��,1.2,�L
2021/05/22,01:40,0.599,0.876,0.563,1.071,0.751,0.366,0.627,0.593,�k�k��,2.2,�L
2021/05/22,01:50,0.600,0.875,0.563,1.071,0.751,0.366,0.628,0.592,�k,2.0,�L
2021/05/22,02:00,0.599,0.875,0.565,1.070,0.752,0.365,0.625,0.591,�k,2.9,�L
2021/05/22,02:10,0.600,0.873,0.564,1.069,0.751,0.366,0.627,0.591,�k�k��,3.6,�L
2021/05/22,02:20,0.599,0.873,0.565,1.068,0.750,0.365,0.627,0.591,�k�k��,2.9,�L
2021/05/22,02:30,0.598,0.874,0.564,1.069,0.751,0.365,0.626,0.591,�k��,0.9,�L
2021/05/22,02:40,0.599,0.874,0.563,1.067,0.752,0.365,0.627,0.591,�k,1.9,�L
2021/05/22,02:50,0.598,0.874,0.564,1.067,0.749,0.366,0.626,0.590,�k�k��,1.9,�L
2021/05/22,03:00,0.597,0.873,0.564,1.068,0.751,0.367,0.625,0.593,�k�k��,2.3,�L
2021/05/22,03:10,0.600,0.875,0.564,1.069,0.752,0.368,0.626,0.593,�k,2.3,�L
2021/05/22,03:20,0.599,0.874,0.565,1.068,0.752,0.366,0.626,0.590,�k�k��,3.4,�L
2021/05/22,03:30,0.600,0.874,0.564,1.071,0.753,0.367,0.627,0.591,�k�k��,2.5,�L
2021/05/22,03:40,0.599,0.876,0.565,1.070,0.753,0.366,0.625,0.591,�쓌,0.9,�L
2021/05/22,03:50,0.600,0.874,0.566,1.069,0.753,0.367,0.628,0.592,�k,5.2,�L
2021/05/22,04:00,0.599,0.873,0.563,1.069,0.753,0.368,0.628,0.590,�k,4.9,�L
2021/05/22,04:10,0.599,0.875,0.564,1.068,0.752,0.368,0.627,0.591,�k�k��,5.6,�L
2021/05/22,04:20,0.597,0.872,0.564,1.069,0.752,0.367,0.627,0.590,�k,6.5,�L
2021/05/22,04:30,0.597,0.870,0.562,1.067,0.751,0.364,0.625,0.590,�k,5.2,�L
2021/05/22,04:40,0.598,0.868,0.562,1.067,0.753,0.365,0.627,0.591,�k,5.2,�L
2021/05/22,04:50,0.597,0.870,0.562,1.068,0.751,0.365,0.626,0.590,�k,5.1,��
2021/05/22,05:00,0.598,0.872,0.561,1.068,0.752,0.365,0.627,0.591,�k,4.2,�L
2021/05/22,05:10,0.598,0.874,0.561,1.067,0.751,0.366,0.628,0.591,�k,3.6,�L
2021/05/22,05:20,0.599,0.872,0.562,1.069,0.751,0.368,0.626,0.591,�k,3.9,�L
2021/05/22,05:30,0.597,0.874,0.561,1.068,0.754,0.368,0.626,0.590,�k,3.5,�L
2021/05/22,05:40,0.598,0.873,0.563,1.070,0.752,0.369,0.627,0.590,�k,4.0,�L
2021/05/22,05:50,0.599,0.873,0.565,1.067,0.752,0.369,0.626,0.588,�k�k��,5.2,�L
2021/05/22,06:00,0.600,0.873,0.564,1.070,0.753,0.369,0.626,0.589,�k,4.0,�L
2021/05/22,06:10,0.597,0.871,0.562,1.066,0.750,0.367,0.626,0.589,�k,3.1,�L
2021/05/22,06:20,0.597,0.871,0.563,1.065,0.750,0.366,0.625,0.588,�k,2.8,�L
2021/05/22,06:30,0.599,0.869,0.563,1.063,0.749,0.368,0.624,0.590,�k,3.0,�L
2021/05/22,06:40,0.600,0.871,0.566,1.064,0.749,0.368,0.626,0.591,�k,3.2,�L
2021/05/22,06:50,0.600,0.870,0.565,1.064,0.748,0.368,0.624,0.588,�k�k��,4.0,�L
2021/05/22,07:00,0.599,0.871,0.566,1.062,0.748,0.367,0.623,0.588,�k�k��,4.6,�L
2021/05/22,07:10,0.598,0.870,0.566,1.063,0.749,0.365,0.626,0.590,�k�k��,3.1,�L
2021/05/22,07:20,0.599,0.868,0.566,1.062,0.747,0.367,0.625,0.588,�k�k��,3.9,�L
2021/05/22,07:30,0.596,0.866,0.566,1.057,0.745,0.366,0.623,0.589,�k��,4.1,�L
2021/05/22,07:40,0.598,0.867,0.564,1.059,0.745,0.367,0.626,0.589,�k�k��,3.4,�L
2021/05/22,07:50,0.596,0.867,0.566,1.062,0.746,0.365,0.625,0.588,�k��,2.6,�L
2021/05/22,08:00,0.596,0.867,0.565,1.064,0.745,0.365,0.625,0.589,�k�k��,3.0,�L
2021/05/22,08:10,0.596,0.867,0.566,1.062,0.747,0.366,0.625,0.589,�k�k��,3.1,�L
2021/05/22,08:20,0.597,0.869,0.562,1.064,0.744,0.365,0.625,0.590,�k�k��,3.4,�L
2021/05/22,08:30,0.597,0.868,0.563,1.063,0.746,0.367,0.625,0.588,�k�k��,4.1,�L
2021/05/22,08:40,0.597,0.868,0.563,1.063,0.748,0.366,0.623,0.590,�k�k��,4.0,�L
2021/05/22,08:50,0.597,0.869,0.562,1.061,0.747,0.364,0.625,0.588,�k�k��,4.2,�L
2021/05/22,09:00,0.597,0.869,0.563,1.062,0.747,0.364,0.626,0.588,�k��,3.7,��
2021/05/22,09:10,0.596,0.870,0.561,1.063,0.747,0.363,0.624,0.589,�k�k��,3.6,��
2021/05/22,09:20,0.597,0.870,0.563,1.062,0.747,0.365,0.624,0.590,�k�k��,3.4,�L
2021/05/22,09:30,0.596,0.871,0.562,1.064,0.748,0.365,0.625,0.590,�k�k��,3.8,�L
2021/05/22,09:40,0.594,0.873,0.563,1.063,0.747,0.363,0.626,0.591,�k�k��,3.0,��
2021/05/22,09:50,0.594,0.871,0.560,1.064,0.746,0.363,0.626,0.590,�k�k��,3.2,��
2021/05/22,10:00,0.593,0.869,0.560,1.063,0.749,0.363,0.624,0.589,�k��,3.0,��
2021/05/22,10:10,0.594,0.867,0.560,1.065,0.747,0.363,0.625,0.589,�k�k��,2.8,��
2021/05/22,10:20,0.593,0.871,0.559,1.065,0.747,0.362,0.625,0.588,�k��,2.3,��
2021/05/22,10:30,0.592,0.870,0.559,1.065,0.747,0.362,0.626,0.590,�k��,1.7,��
2021/05/22,10:40,0.594,0.870,0.558,1.066,0.749,0.362,0.627,0.591,�k��,2.6,��
2021/05/22,10:50,0.595,0.871,0.558,1.065,0.749,0.361,0.625,0.589,���k��,1.7,�L
2021/05/22,11:00,0.594,0.871,0.559,1.065,0.750,0.360,0.626,0.589,��,1.5,�L
2021/05/22,11:10,0.594,0.871,0.558,1.068,0.750,0.363,0.625,0.590,���쓌,1.7,�L
2021/05/22,11:20,0.596,0.873,0.560,1.069,0.751,0.363,0.626,0.589,��,1.7,�L
2021/05/22,11:30,0.596,0.873,0.563,1.066,0.750,0.363,0.626,0.587,���쓌,1.7,�L
2021/05/22,11:40,0.599,0.873,0.562,1.068,0.752,0.366,0.626,0.592,���쓌,1.9,�L
2021/05/22,11:50,0.600,0.875,0.563,1.069,0.751,0.365,0.628,0.591,��,1.7,�L
2021/05/22,12:00,0.599,0.875,0.564,1.071,0.754,0.366,0.626,0.590,���k��,1.9,�L
2021/05/22,12:10,0.602,0.875,0.566,1.071,0.753,0.368,0.628,0.592,���k��,1.7,�L
2021/05/22,12:20,0.600,0.874,0.566,1.071,0.752,0.365,0.625,0.591,���k��,2.9,�L
2021/05/22,12:30,0.600,0.875,0.562,1.070,0.752,0.366,0.627,0.590,�k��,2.8,�L
2021/05/22,12:40,0.597,0.875,0.563,1.073,0.751,0.364,0.626,0.590,�k��,2.6,��
2021/05/22,12:50,0.598,0.873,0.562,1.072,0.752,0.366,0.628,0.591,���k��,2.3,��
2021/05/22,13:00,0.598,0.874,0.563,1.070,0.752,0.364,0.627,0.591,���k��,3.2,��
2021/05/22,13:10,0.598,0.876,0.561,1.071,0.750,0.365,0.627,0.588,���k��,3.1,�L
2021/05/22,13:20,0.597,0.875,0.563,1.070,0.749,0.365,0.626,0.591,�k��,2.6,�L
2021/05/22,13:30,0.596,0.878,0.562,1.069,0.751,0.365,0.627,0.591,�k��,2.2,�L
2021/05/22,13:40,0.598,0.878,0.563,1.069,0.751,0.365,0.627,0.592,�k��,2.6,�L
2021/05/22,13:50,0.597,0.877,0.562,1.071,0.750,0.363,0.627,0.592,�k��,2.6,�L
2021/05/22,14:00,0.598,0.878,0.561,1.070,0.752,0.366,0.627,0.593,�k�k��,3.0,�L
2021/05/22,14:10,0.598,0.879,0.563,1.072,0.754,0.367,0.626,0.591,�k�k��,2.5,�L
2021/05/22,14:20,0.598,0.877,0.563,1.069,0.752,0.365,0.627,0.591,�k,3.1,�L
2021/05/22,14:30,0.598,0.879,0.565,1.069,0.751,0.365,0.627,0.591,�k��,2.3,�L
2021/05/22,14:40,0.599,0.879,0.565,1.071,0.751,0.367,0.627,0.593,�k��,2.5,�L
2021/05/22,14:50,0.598,0.879,0.564,1.072,0.751,0.366,0.626,0.590,�k�k��,2.0,�L
2021/05/22,15:00,0.597,0.880,0.563,1.071,0.754,0.366,0.627,0.592,�k�k��,1.5,�L
2021/05/22,15:10,0.599,0.879,0.563,1.070,0.752,0.366,0.625,0.591,���k��,1.7,�L
2021/05/22,15:20,0.598,0.879,0.562,1.071,0.753,0.367,0.628,0.593,���k��,1.5,�L
2021/05/22,15:30,0.598,0.876,0.563,1.070,0.753,0.365,0.627,0.594,�k�k��,1.5,�L
2021/05/22,15:40,0.599,0.877,0.563,1.071,0.754,0.366,0.628,0.591,���k��,1.5,�L
2021/05/22,15:50,0.599,0.877,0.564,1.073,0.755,0.367,0.627,0.591,�k�k��,1.2,�L
2021/05/22,16:00,0.598,0.878,0.563,1.071,0.754,0.367,0.629,0.591,�k��,1.2,�L
2021/05/22,16:10,0.599,0.877,0.563,1.071,0.754,0.367,0.627,0.592,���k��,0.9,��
2021/05/22,16:20,0.597,0.877,0.564,1.072,0.753,0.366,0.627,0.592,��,0.9,�L
2021/05/22,16:30,0.599,0.880,0.563,1.072,0.755,0.366,0.627,0.592,-,CALM,�L
2021/05/22,16:40,0.597,0.875,0.561,1.072,0.754,0.367,0.629,0.593,��쓌,0.6,�L
2021/05/22,16:50,0.600,0.878,0.563,1.072,0.756,0.367,0.627,0.593,-,CALM,�L
2021/05/22,17:00,0.600,0.880,0.565,1.070,0.755,0.370,0.629,0.594,�쓌,1.1,�L
2021/05/22,17:10,0.600,0.879,0.566,1.071,0.754,0.369,0.628,0.592,�쓌,1.4,�L
2021/05/22,17:20,0.601,0.880,0.566,1.070,0.754,0.368,0.628,0.592,���쓌,1.1,�L
2021/05/22,17:30,0.602,0.879,0.566,1.071,0.754,0.368,0.629,0.592,�쓌,1.1,�L
2021/05/22,17:40,0.602,0.877,0.567,1.070,0.753,0.368,0.630,0.593,��쓌,0.9,�L
2021/05/22,17:50,0.600,0.878,0.566,1.071,0.751,0.369,0.627,0.592,���쓌,0.9,�L
2021/05/22,18:00,0.601,0.876,0.564,1.071,0.754,0.366,0.626,0.593,�쓌,0.8,�L
2021/05/22,18:10,0.600,0.877,0.564,1.066,0.753,0.366,0.626,0.593,���쓌,0.6,�L
2021/05/22,18:20,0.599,0.877,0.565,1.069,0.752,0.367,0.628,0.592,�쓌,0.9,�L
2021/05/22,18:30,0.599,0.877,0.566,1.071,0.752,0.367,0.627,0.592,�쓌,0.9,�L
2021/05/22,18:40,0.599,0.874,0.563,1.067,0.751,0.367,0.626,0.591,��쓌,0.9,�L
2021/05/22,18:50,0.601,0.876,0.563,1.068,0.752,0.366,0.626,0.591,�쓌,1.5,�L
2021/05/22,19:00,0.600,0.876,0.564,1.067,0.752,0.367,0.626,0.591,���쓌,0.9,�L
2021/05/22,19:10,0.601,0.873,0.565,1.064,0.752,0.367,0.627,0.591,���쓌,0.9,�L
2021/05/22,19:20,0.602,0.875,0.566,1.065,0.751,0.369,0.625,0.591,��,1.5,�L
2021/05/22,19:30,0.600,0.871,0.565,1.062,0.749,0.370,0.626,0.592,�쓌,1.9,�L
2021/05/22,19:40,0.600,0.870,0.567,1.058,0.749,0.369,0.624,0.588,��,2.0,�L
2021/05/22,19:50,0.596,0.868,0.567,1.057,0.746,0.369,0.623,0.588,�쓌,1.7,�L
2021/05/22,20:00,0.597,0.868,0.568,1.055,0.745,0.370,0.623,0.586,���쓌,1.2,�L
2021/05/22,20:10,0.598,0.864,0.565,1.052,0.743,0.370,0.620,0.586,���쓌,5.5,�L
2021/05/22,20:20,0.599,0.867,0.566,1.052,0.743,0.370,0.622,0.588,�k��,0.9,�L
2021/05/22,20:30,0.599,0.867,0.567,1.057,0.744,0.370,0.623,0.586,�k�k��,1.4,�L
2021/05/22,20:40,0.599,0.868,0.566,1.056,0.743,0.370,0.620,0.586,�k,1.5,�L
2021/05/22,20:50,0.601,0.869,0.566,1.054,0.743,0.370,0.621,0.588,�k��,4.2,�L
2021/05/22,21:00,0.600,0.870,0.565,1.052,0.742,0.370,0.622,0.587,�k�k��,0.8,�L
2021/05/22,21:10,0.598,0.869,0.565,1.053,0.742,0.369,0.620,0.588,�k��,1.2,�L
2021/05/22,21:20,0.599,0.868,0.568,1.055,0.742,0.371,0.623,0.588,�k��,1.7,�L
2021/05/22,21:30,0.598,0.867,0.565,1.052,0.741,0.370,0.621,0.586,�k,1.7,�L
2021/05/22,21:40,0.598,0.867,0.565,1.053,0.741,0.370,0.621,0.587,-,CALM,�L
2021/05/22,21:50,0.597,0.865,0.565,1.051,0.738,0.371,0.621,0.586,���k��,4.1,�L
2021/05/22,22:00,0.598,0.867,0.567,1.050,0.740,0.369,0.621,0.587,�k,1.9,�L
2021/05/22,22:10,0.598,0.865,0.567,1.052,0.740,0.369,0.621,0.586,�k,2.0,�L
2021/05/22,22:20,0.600,0.867,0.565,1.053,0.741,0.370,0.622,0.586,�k,1.7,�L
2021/05/22,22:30,0.598,0.870,0.565,1.051,0.741,0.368,0.622,0.585,�k�k��,1.7,�L
2021/05/22,22:40,0.598,0.866,0.563,1.055,0.742,0.368,0.624,0.586,�k�k��,1.2,�L
2021/05/22,22:50,0.598,0.867,0.563,1.056,0.741,0.368,0.622,0.587,�k�k��,1.7,�L
2021/05/22,23:00,0.596,0.868,0.563,1.052,0.742,0.367,0.621,0.589,�k�k��,1.7,�L
2021/05/22,23:10,0.597,0.867,0.560,1.058,0.738,0.367,0.622,0.586,�k��,1.5,�L
2021/05/22,23:20,0.596,0.868,0.560,1.055,0.740,0.366,0.620,0.586,�k�k��,0.9,�L
2021/05/22,23:30,0.595,0.868,0.560,1.056,0.739,0.365,0.623,0.588,�k,0.6,�L
2021/05/22,23:40,0.595,0.869,0.560,1.057,0.741,0.364,0.623,0.588,-,CALM,�L
2021/05/22,23:50,0.594,0.867,0.559,1.056,0.739,0.365,0.622,0.586,�k,0.9,�L
